Hamilton, OH

12:03 AM EDT on March 29, 2017 (GMT -0400)
Butler County Regional

Weather History for KHAO - January, 2013

Change the Weather History Date:

Wednesday, January 23, 2013

  Actual Average (KLUK) Record (KLUK)
Temperature  
Mean Temperature 16 °F -  
Max Temperature 23 °F 43 °F 70 °F (1967)
Min Temperature 10 °F 23 °F -7 °F (1963)
Degree Days  
Heating Degree Days 48    
Moisture  
Dew Point 3 °F    
Average Humidity 51    
Maximum Humidity 71    
Minimum Humidity 42    
Precipitation  
Precipitation 0.00 in - - ()
Sea Level Pressure  
Sea Level Pressure 30.29 in    
Wind  
Wind Speed 5 mph (WSW)    
Max Wind Speed 9 mph    
Max Gust Speed 16 mph    
Visibility 10 miles    
Events Snow    
Averages and records for this station are not official NWS values.
T = Trace of Precipitation, MM = Missing Value Source: NWS Daily Summary

Daily Weather History Graph

Daily Weather History Graph

Search for Another Location

Airport or City:

Trip Planner

Search our weather history database for the weather conditions in past years. The results will help you decide how hot, cold, wet, or windy it might be!

Date:

Astronomy

Jan. 23, 2013 Rise Set
Actual Time 7:52 AM EST 5:48 PM EST
Civil Twilight 7:23 AM EST 6:17 PM EST
Nautical Twilight 6:50 AM EST 6:49 PM EST
Astronomical Twilight 6:18 AM EST 7:21 PM EST
Moon 2:58 PM EST (1/23) 5:02 AM EST (1/23)
Length of Visible Light 10h 54m
Length of Day
9h 56m
Waxing Gibbous, 89% of the Moon is Illuminated
Jan 23
Waxing Gibbous
Jan 26
Full
Feb 3
Last Quarter
Feb 10
New
Feb 17
First Quarter

Hourly Weather History & Observations

Time (EST) Temp. Windchill Dew Point Humidity Pressure Visibility Wind Dir Wind Speed Gust Speed Precip Events Conditions
12:53 AM 16.0 °F 7.4 °F -2.0 °F 45% 30.39 in 10.0 mi West 5.8 mph 16.1 mph N/A   Overcast
2:53 AM 16.0 °F 7.4 °F -0.9 °F 47% 30.40 in 10.0 mi West 5.8 mph - N/A   Overcast
3:53 AM 15.1 °F 7.7 °F -0.0 °F 51% 30.39 in 10.0 mi West 4.6 mph - N/A   Overcast
4:53 AM 10.9 °F 4.7 °F -0.0 °F 61% 30.38 in 10.0 mi West 3.5 mph - N/A   Clear
5:53 AM 12.0 °F 5.9 °F -0.0 °F 59% 30.38 in 10.0 mi West 3.5 mph - N/A   Clear
6:53 AM 15.1 °F 6.4 °F 1.9 °F 56% 30.39 in 10.0 mi WSW 5.8 mph - N/A   Overcast
7:53 AM 15.1 °F 7.7 °F 1.9 °F 56% 30.39 in 10.0 mi WSW 4.6 mph - N/A   Overcast
8:53 AM 16.0 °F 7.4 °F -0.0 °F 49% 30.39 in 10.0 mi West 5.8 mph - N/A   Overcast
9:53 AM 18.0 °F 7.7 °F 1.0 °F 48% 30.39 in 10.0 mi WSW 8.1 mph - N/A   Overcast
10:53 AM 19.0 °F 11.1 °F 1.0 °F 46% 30.37 in 10.0 mi SW 5.8 mph - N/A   Overcast
11:53 AM 19.9 °F 13.4 °F 1.9 °F 46% 30.35 in 10.0 mi WSW 4.6 mph - N/A   Overcast
12:53 PM 21.0 °F 10.6 °F 1.9 °F 44% 30.31 in 9.0 mi WSW 9.2 mph - 0.00 in Snow Light Snow
1:53 PM 21.0 °F 11.4 °F 1.9 °F 44% 30.28 in 10.0 mi SW 8.1 mph - 0.00 in   Overcast
2:53 PM 21.9 °F 12.5 °F 5.0 °F 48% 30.25 in 10.0 mi SW 8.1 mph - N/A   Overcast
3:53 PM 23.0 °F 17.0 °F 5.0 °F 46% 30.22 in 10.0 mi SW 4.6 mph - N/A   Overcast
4:53 PM 23.0 °F - 3.0 °F 42% 30.21 in 10.0 mi Calm Calm - N/A   Overcast
5:53 PM 23.0 °F - 3.9 °F 44% 30.19 in 10.0 mi Calm Calm - N/A   Overcast
6:53 PM 23.0 °F - 5.0 °F 46% 30.18 in 10.0 mi Calm Calm - N/A   Overcast
7:53 PM 23.0 °F - 5.0 °F 46% 30.17 in 10.0 mi Calm Calm - N/A   Overcast
8:53 PM 23.0 °F - 9.0 °F 55% 30.17 in 10.0 mi Calm Calm - N/A   Overcast
9:53 PM 21.0 °F - 9.0 °F 60% 30.16 in 10.0 mi Calm Calm - N/A   Overcast
10:53 PM 19.9 °F - 12.0 °F 71% 30.15 in 10.0 mi Calm Calm - N/A   Overcast
11:53 PM 19.9 °F - 10.9 °F 68% 30.14 in 10.0 mi Calm Calm - N/A   Mostly Cloudy